Information on these data can be found in provided Readme document
Contact Info: Zachary Fasnacht (zachary.fasnacht@ssaihq.com); Nickolay Krotkov (nickolay.a.krotkov@nasa.gov); Lok Lamsal (lok.lamsal@nasa.gov)

FillValue: -999.
ScaleFactor: 1e15
Units: molecules/cm^2

Date(yyyy-mm-dd),City,Country,LonCenter,LatCenter,BoundingCoordinates,Median,Q1,Q3,Mean,Baseline_Median,Baseline_Q1,Baseline_Q3,Baseline_Mean,NumGoodSamples,NumTotalSamples
2015-01-01,Shenzhen,China,114.1333,22.5333,[113.6333 22.0333 114.6333 23.0333],22.529,13.424,30.348,21.621,18.363,12.001,26.371,19.317,91.0,525.0
2015-01-02,Shenzhen,China,114.1333,22.5333,[113.6333 22.0333 114.6333 23.0333],20.112,10.531,27.9,19.707,17.692,11.054,24.948,18.535,109.0,511.0
2015-01-03,Shenzhen,China,114.1333,22.5333,[113.6333 22.0333 114.6333 23.0333],19.966,10.19,27.9,19.385,17.33,10.086,25.364,18.019,141.0,531.0
2015-01-04,Shenzhen,China,114.1333,22.5333,[113.6333 22.0333 114.6333 23.0333],19.966,10.19,27.9,19.385,17.235,9.245,23.901,17.25,141.0,526.0
2015-01-05,Shenzhen,China,114.1333,22.5333,[113.6333 22.0333 114.6333 23.0333],19.966,10.19,27.9,19.385,17.233,9.234,23.916,17.246,141.0,524.0
2015-01-06,Shenzhen,China,114.1333,22.5333,[113.6333 22.0333 114.6333 23.0333],21.063,10.531,29.339,20.158,17.187,9.256,24.967,17.721,122.0,533.0
2015-01-07,Shenzhen,China,114.1333,22.5333,[113.6333 22.0333 114.6333 23.0333],19.014,10.02,27.9,19.021,16.122,9.08,24.481,17.225,141.0,512.0
2015-01-08,Shenzhen,China,114.1333,22.5333,[113.6333 22.0333 114.6333 23.0333],12.751,6.108,19.045,14.219,13.868,7.682,22.285,15.758,117.0,531.0
2015-01-09,Shenzhen,China,114.1333,22.5333,[113.6333 22.0333 114.6333 23.0333],16.751,10.19,19.921,15.864,15.748,9.293,21.901,16.357,141.0,507.0
2015-01-10,Shenzhen,China,114.1333,22.5333,[113.6333 22.0333 114.6333 23.0333],17.428,11.007,20.347,16.35,16.332,10.642,21.637,16.673,123.0,487.0
2015-01-11,Shenzhen,China,114.1333,22.5333,[113.6333 22.0333 114.6333 23.0333],15.066,10.335,19.137,14.931,15.775,10.504,21.671,16.571,113.0,466.0
2015-01-12,Shenzhen,China,114.1333,22.5333,[113.6333 22.0333 114.6333 23.0333],14.975,9.366,19.137,14.816,15.702,9.99,21.455,16.372,143.0,474.0
2015-01-13,Shenzhen,China,114.1333,22.5333,[113.6333 22.0333 114.6333 23.0333],14.975,9.366,19.137,14.816,15.629,10.152,20.974,16.136,143.0,476.0
2015-01-14,Shenzhen,China,114.1333,22.5333,[113.6333 22.0333 114.6333 23.0333],16.46,10.02,20.989,16.826,15.419,10.365,20.048,16.095,161.0,462.0
2015-01-15,Shenzhen,China,114.1333,22.5333,[113.6333 22.0333 114.6333 23.0333],16.46,10.02,20.989,16.826,15.567,10.418,20.439,16.333,161.0,482.0
2015-01-16,Shenzhen,China,114.1333,22.5333,[113.6333 22.0333 114.6333 23.0333],15.245,9.366,20.347,16.428,14.751,9.947,19.879,15.83,181.0,452.0
2015-01-17,Shenzhen,China,114.1333,22.5333,[113.6333 22.0333 114.6333 23.0333],16.46,10.02,20.989,16.935,14.14,9.143,19.106,15.417,163.0,470.0
2015-01-18,Shenzhen,China,114.1333,22.5333,[113.6333 22.0333 114.6333 23.0333],16.46,10.461,19.875,17.042,14.208,9.274,19.145,15.587,131.0,456.0
2015-01-19,Shenzhen,China,114.1333,22.5333,[113.6333 22.0333 114.6333 23.0333],16.613,10.461,20.989,17.201,14.379,9.387,19.7,15.837,154.0,474.0
2015-01-20,Shenzhen,China,114.1333,22.5333,[113.6333 22.0333 114.6333 23.0333],16.46,10.335,20.085,16.9,14.115,9.714,19.337,15.647,160.0,470.0
2015-01-21,Shenzhen,China,114.1333,22.5333,[113.6333 22.0333 114.6333 23.0333],15.651,10.335,19.897,16.723,13.779,9.79,19.008,15.404,164.0,470.0
2015-01-22,Shenzhen,China,114.1333,22.5333,[113.6333 22.0333 114.6333 23.0333],17.563,10.402,21.624,17.517,14.169,9.33,18.37,15.296,145.0,476.0
2015-01-23,Shenzhen,China,114.1333,22.5333,[113.6333 22.0333 114.6333 23.0333],17.541,10.335,21.624,17.427,14.213,9.193,18.033,15.054,158.0,454.0
2015-01-24,Shenzhen,China,114.1333,22.5333,[113.6333 22.0333 114.6333 23.0333],11.822,6.482,24.436,16.493,12.55,8.199,18.246,14.571,134.0,474.0
2015-01-25,Shenzhen,China,114.1333,22.5333,[113.6333 22.0333 114.6333 23.0333],11.822,6.482,24.436,16.493,11.705,7.649,17.707,14.166,134.0,501.0
2015-01-26,Shenzhen,China,114.1333,22.5333,[113.6333 22.0333 114.6333 23.0333],14.322,7.206,27.619,18.634,12.302,7.739,17.403,14.15,114.0,532.0
2015-01-27,Shenzhen,China,114.1333,22.5333,[113.6333 22.0333 114.6333 23.0333],15.402,6.482,27.369,18.284,12.463,7.61,17.322,14.048,95.0,513.0
2015-01-28,Shenzhen,China,114.1333,22.5333,[113.6333 22.0333 114.6333 23.0333],15.402,7.327,27.369,18.098,12.272,7.831,17.387,13.751,98.0,526.0
2015-01-29,Shenzhen,China,114.1333,22.5333,[113.6333 22.0333 114.6333 23.0333],11.569,6.339,19.18,13.453,11.209,7.402,17.138,13.185,80.0,526.0
2015-01-30,Shenzhen,China,114.1333,22.5333,[113.6333 22.0333 114.6333 23.0333],11.569,6.339,19.18,13.453,10.622,6.318,15.01,12.034,80.0,512.0
2015-01-31,Shenzhen,China,114.1333,22.5333,[113.6333 22.0333 114.6333 23.0333],11.555,4.929,19.152,13.507,9.76,5.525,13.597,11.183,60.0,531.0
2015-02-01,Shenzhen,China,114.1333,22.5333,[113.6333 22.0333 114.6333 23.0333],11.555,5.957,16.439,12.516,10.21,5.567,13.773,11.183,77.0,504.0
2015-02-02,Shenzhen,China,114.1333,22.5333,[113.6333 22.0333 114.6333 23.0333],11.555,5.957,16.439,12.516,9.659,5.315,13.661,10.179,77.0,522.0
2015-02-03,Shenzhen,China,114.1333,22.5333,[113.6333 22.0333 114.6333 23.0333],11.555,5.769,16.17,11.653,9.955,5.27,13.771,10.038,82.0,509.0
2015-02-04,Shenzhen,China,114.1333,22.5333,[113.6333 22.0333 114.6333 23.0333],12.447,5.957,16.274,11.976,9.518,5.131,14.159,10.078,80.0,527.0
2015-02-05,Shenzhen,China,114.1333,22.5333,[113.6333 22.0333 114.6333 23.0333],12.447,5.769,16.439,12.695,9.087,4.868,13.297,9.899,95.0,521.0
2015-02-06,Shenzhen,China,114.1333,22.5333,[113.6333 22.0333 114.6333 23.0333],12.447,5.769,16.439,12.865,9.429,5.059,13.725,10.304,117.0,523.0
2015-02-07,Shenzhen,China,114.1333,22.5333,[113.6333 22.0333 114.6333 23.0333],12.447,5.769,16.274,12.491,9.201,5.02,13.566,9.913,104.0,529.0
2015-02-08,Shenzhen,China,114.1333,22.5333,[113.6333 22.0333 114.6333 23.0333],12.447,5.769,16.274,12.491,9.441,5.036,13.718,9.916,104.0,506.0
2015-02-09,Shenzhen,China,114.1333,22.5333,[113.6333 22.0333 114.6333 23.0333],12.447,5.769,16.274,12.491,9.423,5.28,13.758,10.058,104.0,526.0
2015-02-10,Shenzhen,China,114.1333,22.5333,[113.6333 22.0333 114.6333 23.0333],12.447,5.957,16.274,12.4,9.518,5.283,13.842,10.096,110.0,502.0
2015-02-11,Shenzhen,China,114.1333,22.5333,[113.6333 22.0333 114.6333 23.0333],11.663,6.235,16.274,12.599,9.455,5.557,13.96,10.372,99.0,482.0
2015-02-12,Shenzhen,China,114.1333,22.5333,[113.6333 22.0333 114.6333 23.0333],12.447,6.235,16.274,12.643,9.261,5.554,12.931,10.074,96.0,461.0
2015-02-13,Shenzhen,China,114.1333,22.5333,[113.6333 22.0333 114.6333 23.0333],11.501,6.235,16.274,12.423,9.152,5.548,12.95,9.94,103.0,473.0
2015-02-14,Shenzhen,China,114.1333,22.5333,[113.6333 22.0333 114.6333 23.0333],11.501,6.235,16.274,12.423,9.515,5.812,13.257,10.292,103.0,477.0
2015-02-15,Shenzhen,China,114.1333,22.5333,[113.6333 22.0333 114.6333 23.0333],11.501,6.235,16.274,12.423,9.604,5.952,13.42,10.48,103.0,463.0
2015-02-16,Shenzhen,China,114.1333,22.5333,[113.6333 22.0333 114.6333 23.0333],11.501,6.471,16.411,12.818,9.54,6.048,13.392,10.543,86.0,482.0
2015-02-17,Shenzhen,China,114.1333,22.5333,[113.6333 22.0333 114.6333 23.0333],11.501,6.471,16.411,12.818,9.595,6.138,13.602,10.751,86.0,454.0
2015-02-18,Shenzhen,China,114.1333,22.5333,[113.6333 22.0333 114.6333 23.0333],10.269,6.382,16.411,13.612,9.105,6.151,13.146,10.544,58.0,471.0
2015-02-19,Shenzhen,China,114.1333,22.5333,[113.6333 22.0333 114.6333 23.0333],8.098,4.454,10.532,10.172,8.519,5.497,12.011,9.93,68.0,460.0
2015-02-20,Shenzhen,China,114.1333,22.5333,[113.6333 22.0333 114.6333 23.0333],7.649,3.356,10.148,8.648,9.051,5.565,12.869,10.197,49.0,478.0
2015-02-21,Shenzhen,China,114.1333,22.5333,[113.6333 22.0333 114.6333 23.0333],7.649,5.017,8.573,7.313,8.988,5.952,12.308,9.877,27.0,472.0
2015-02-22,Shenzhen,China,114.1333,22.5333,[113.6333 22.0333 114.6333 23.0333],7.649,5.034,10.148,7.388,9.056,6.259,12.273,9.881,36.0,475.0
2015-02-23,Shenzhen,China,114.1333,22.5333,[113.6333 22.0333 114.6333 23.0333],7.649,5.034,10.148,7.388,8.84,6.381,11.766,9.903,36.0,481.0
2015-02-24,Shenzhen,China,114.1333,22.5333,[113.6333 22.0333 114.6333 23.0333],7.649,5.034,10.148,7.388,8.782,5.86,11.785,9.571,36.0,458.0
2015-02-25,Shenzhen,China,114.1333,22.5333,[113.6333 22.0333 114.6333 23.0333],6.471,3.356,8.208,6.024,8.853,5.684,12.07,9.948,30.0,478.0
2015-02-26,Shenzhen,China,114.1333,22.5333,[113.6333 22.0333 114.6333 23.0333],6.471,3.356,8.208,6.024,8.736,5.575,11.743,9.605,30.0,505.0
2015-02-27,Shenzhen,China,114.1333,22.5333,[113.6333 22.0333 114.6333 23.0333],6.471,3.356,8.208,6.024,8.945,5.571,11.659,9.681,30.0,535.0
2015-02-28,Shenzhen,China,114.1333,22.5333,[113.6333 22.0333 114.6333 23.0333],6.372,3.356,8.208,5.994,8.692,5.346,12.669,9.918,23.0,514.0
2015-03-01,Shenzhen,China,114.1333,22.5333,[113.6333 22.0333 114.6333 23.0333],6.372,2.752,8.208,5.833,8.683,5.258,12.65,9.88,26.0,523.0
2015-03-02,Shenzhen,China,114.1333,22.5333,[113.6333 22.0333 114.6333 23.0333],6.372,2.752,8.208,5.833,8.705,5.305,12.785,9.798,26.0,525.0
2015-03-03,Shenzhen,China,114.1333,22.5333,[113.6333 22.0333 114.6333 23.0333],6.372,2.752,8.208,5.833,8.705,5.305,12.785,9.798,26.0,512.0
2015-03-04,Shenzhen,China,114.1333,22.5333,[113.6333 22.0333 114.6333 23.0333],6.372,2.752,8.208,5.833,8.778,5.297,13.258,9.896,26.0,529.0
2015-03-05,Shenzhen,China,114.1333,22.5333,[113.6333 22.0333 114.6333 23.0333],6.372,2.752,8.208,5.833,8.687,5.221,13.301,10.073,26.0,501.0
2015-03-06,Shenzhen,China,114.1333,22.5333,[113.6333 22.0333 114.6333 23.0333],6.372,2.902,10.962,6.713,9.257,5.51,14.139,10.642,12.0,518.0
2015-03-07,Shenzhen,China,114.1333,22.5333,[113.6333 22.0333 114.6333 23.0333],6.372,2.902,10.962,6.713,9.301,5.382,14.06,10.63,12.0,506.0
2015-03-08,Shenzhen,China,114.1333,22.5333,[113.6333 22.0333 114.6333 23.0333],6.372,2.902,10.962,6.713,9.119,5.514,14.452,10.634,12.0,524.0
2015-03-09,Shenzhen,China,114.1333,22.5333,[113.6333 22.0333 114.6333 23.0333],8.697,2.579,10.221,6.235,9.828,4.798,15.183,11.177,6.0,519.0
2015-03-10,Shenzhen,China,114.1333,22.5333,[113.6333 22.0333 114.6333 23.0333],4.097,3.128,8.974,5.57,9.554,4.932,14.866,11.101,10.0,523.0
2015-03-11,Shenzhen,China,114.1333,22.5333,[113.6333 22.0333 114.6333 23.0333],4.097,2.579,8.697,5.187,9.825,4.761,16.579,11.577,18.0,532.0
2015-03-12,Shenzhen,China,114.1333,22.5333,[113.6333 22.0333 114.6333 23.0333],8.697,3.443,15.698,8.78,9.448,4.645,15.14,10.921,30.0,511.0
2015-03-13,Shenzhen,China,114.1333,22.5333,[113.6333 22.0333 114.6333 23.0333],8.697,3.443,15.698,8.78,9.896,4.767,15.211,10.814,30.0,531.0
2015-03-14,Shenzhen,China,114.1333,22.5333,[113.6333 22.0333 114.6333 23.0333],7.422,3.443,12.769,8.378,9.683,4.63,15.46,10.855,33.0,509.0
2015-03-15,Shenzhen,China,114.1333,22.5333,[113.6333 22.0333 114.6333 23.0333],7.422,3.443,12.769,8.378,10.444,5.224,15.155,11.142,33.0,489.0
2015-03-16,Shenzhen,China,114.1333,22.5333,[113.6333 22.0333 114.6333 23.0333],8.697,4.097,12.769,8.881,10.566,5.11,15.304,11.181,32.0,469.0
2015-03-17,Shenzhen,China,114.1333,22.5333,[113.6333 22.0333 114.6333 23.0333],8.037,3.527,11.179,8.541,10.652,4.952,14.828,11.059,37.0,481.0
2015-03-18,Shenzhen,China,114.1333,22.5333,[113.6333 22.0333 114.6333 23.0333],8.037,3.527,11.179,8.541,10.638,4.973,14.886,10.982,37.0,484.0
2015-03-19,Shenzhen,China,114.1333,22.5333,[113.6333 22.0333 114.6333 23.0333],8.037,3.527,11.179,8.541,10.546,4.899,14.514,10.992,37.0,473.0
2015-03-20,Shenzhen,China,114.1333,22.5333,[113.6333 22.0333 114.6333 23.0333],8.037,3.527,11.179,8.541,10.467,5.125,14.536,10.893,37.0,493.0
2015-03-21,Shenzhen,China,114.1333,22.5333,[113.6333 22.0333 114.6333 23.0333],7.739,4.097,13.209,8.473,9.193,4.928,14.446,10.426,54.0,464.0
2015-03-22,Shenzhen,China,114.1333,22.5333,[113.6333 22.0333 114.6333 23.0333],7.739,4.097,13.209,8.473,9.149,4.735,13.69,10.139,54.0,483.0
2015-03-23,Shenzhen,China,114.1333,22.5333,[113.6333 22.0333 114.6333 23.0333],7.739,4.097,12.769,8.373,9.156,4.738,13.56,10.127,57.0,469.0
2015-03-24,Shenzhen,China,114.1333,22.5333,[113.6333 22.0333 114.6333 23.0333],7.422,4.097,13.209,8.381,8.808,4.81,13.749,9.884,58.0,485.0
2015-03-25,Shenzhen,China,114.1333,22.5333,[113.6333 22.0333 114.6333 23.0333],7.739,4.698,13.209,8.542,8.712,4.769,13.834,9.939,56.0,480.0
2015-03-26,Shenzhen,China,114.1333,22.5333,[113.6333 22.0333 114.6333 23.0333],7.373,3.963,13.209,8.366,9.292,5.15,13.964,10.068,59.0,483.0
2015-03-27,Shenzhen,China,114.1333,22.5333,[113.6333 22.0333 114.6333 23.0333],7.325,3.963,9.565,7.105,9.401,5.126,13.649,9.863,49.0,491.0
2015-03-28,Shenzhen,China,114.1333,22.5333,[113.6333 22.0333 114.6333 23.0333],6.223,3.936,8.334,6.635,8.361,4.831,12.34,9.239,68.0,472.0
2015-03-29,Shenzhen,China,114.1333,22.5333,[113.6333 22.0333 114.6333 23.0333],7.325,3.773,8.334,6.716,8.654,4.616,11.945,9.085,65.0,491.0
2015-03-30,Shenzhen,China,114.1333,22.5333,[113.6333 22.0333 114.6333 23.0333],7.579,4.865,9.9,7.482,7.772,4.433,11.456,8.563,86.0,519.0
2015-03-31,Shenzhen,China,114.1333,22.5333,[113.6333 22.0333 114.6333 23.0333],7.579,4.816,9.565,7.583,7.645,4.498,11.141,8.485,92.0,549.0
2015-04-01,Shenzhen,China,114.1333,22.5333,[113.6333 22.0333 114.6333 23.0333],7.579,4.865,9.9,7.664,7.754,4.667,11.339,8.523,87.0,532.0
2015-04-02,Shenzhen,China,114.1333,22.5333,[113.6333 22.0333 114.6333 23.0333],7.579,4.865,9.9,7.664,7.945,4.655,11.465,8.634,87.0,539.0
2015-04-03,Shenzhen,China,114.1333,22.5333,[113.6333 22.0333 114.6333 23.0333],7.579,4.865,9.9,7.664,7.971,4.588,11.466,8.548,87.0,538.0
2015-04-04,Shenzhen,China,114.1333,22.5333,[113.6333 22.0333 114.6333 23.0333],7.579,4.865,9.9,7.664,7.764,4.519,11.343,8.323,87.0,525.0
2015-04-05,Shenzhen,China,114.1333,22.5333,[113.6333 22.0333 114.6333 23.0333],7.544,4.865,9.465,7.415,7.654,4.551,11.456,8.325,81.0,547.0
2015-04-06,Shenzhen,China,114.1333,22.5333,[113.6333 22.0333 114.6333 23.0333],7.689,4.865,10.422,8.016,7.953,4.634,11.643,8.522,101.0,516.0
2015-04-07,Shenzhen,China,114.1333,22.5333,[113.6333 22.0333 114.6333 23.0333],7.689,4.865,10.422,8.057,7.953,4.629,11.645,8.496,98.0,535.0
2015-04-08,Shenzhen,China,114.1333,22.5333,[113.6333 22.0333 114.6333 23.0333],8.385,5.327,13.265,9.077,8.124,4.747,12.441,8.717,125.0,522.0
2015-04-09,Shenzhen,China,114.1333,22.5333,[113.6333 22.0333 114.6333 23.0333],8.636,5.327,13.265,9.334,8.137,4.751,12.254,8.708,159.0,537.0
2015-04-10,Shenzhen,China,114.1333,22.5333,[113.6333 22.0333 114.6333 23.0333],8.807,5.327,13.466,9.454,7.944,4.481,12.057,8.476,167.0,531.0
2015-04-11,Shenzhen,China,114.1333,22.5333,[113.6333 22.0333 114.6333 23.0333],8.636,5.327,13.466,9.403,7.851,4.488,11.785,8.494,169.0,532.0
2015-04-12,Shenzhen,China,114.1333,22.5333,[113.6333 22.0333 114.6333 23.0333],9.2,5.331,14.045,9.814,8.427,4.717,12.284,8.876,152.0,539.0
2015-04-13,Shenzhen,China,114.1333,22.5333,[113.6333 22.0333 114.6333 23.0333],9.2,5.331,14.045,9.814,8.108,4.746,12.475,8.894,152.0,517.0
2015-04-14,Shenzhen,China,114.1333,22.5333,[113.6333 22.0333 114.6333 23.0333],11.182,5.327,14.864,10.496,8.549,4.513,12.536,8.86,131.0,537.0
2015-04-15,Shenzhen,China,114.1333,22.5333,[113.6333 22.0333 114.6333 23.0333],10.658,5.327,14.537,10.249,8.466,4.425,12.365,8.705,125.0,514.0
2015-04-16,Shenzhen,China,114.1333,22.5333,[113.6333 22.0333 114.6333 23.0333],10.658,5.327,14.537,10.249,8.091,4.33,11.701,8.432,125.0,490.0
2015-04-17,Shenzhen,China,114.1333,22.5333,[113.6333 22.0333 114.6333 23.0333],10.036,5.185,14.38,9.929,7.621,4.316,11.292,8.077,136.0,471.0
2015-04-18,Shenzhen,China,114.1333,22.5333,[113.6333 22.0333 114.6333 23.0333],9.726,4.49,14.38,9.881,7.609,4.091,11.125,7.972,152.0,484.0
2015-04-19,Shenzhen,China,114.1333,22.5333,[113.6333 22.0333 114.6333 23.0333],9.2,4.267,14.367,9.626,7.177,3.88,11.033,7.722,163.0,485.0
2015-04-20,Shenzhen,China,114.1333,22.5333,[113.6333 22.0333 114.6333 23.0333],9.2,4.267,14.367,9.73,7.251,3.859,11.176,7.842,172.0,468.0
2015-04-21,Shenzhen,China,114.1333,22.5333,[113.6333 22.0333 114.6333 23.0333],9.2,4.267,14.38,9.771,6.896,3.679,10.681,7.541,167.0,486.0
2015-04-22,Shenzhen,China,114.1333,22.5333,[113.6333 22.0333 114.6333 23.0333],9.2,4.007,14.38,9.726,7.196,3.776,11.66,8.056,177.0,457.0
2015-04-23,Shenzhen,China,114.1333,22.5333,[113.6333 22.0333 114.6333 23.0333],7.161,3.497,13.133,8.92,6.158,3.545,10.92,7.472,146.0,475.0
2015-04-24,Shenzhen,China,114.1333,22.5333,[113.6333 22.0333 114.6333 23.0333],5.912,3.174,12.824,8.004,5.552,2.943,10.626,6.87,113.0,461.0
2015-04-25,Shenzhen,China,114.1333,22.5333,[113.6333 22.0333 114.6333 23.0333],5.262,3.009,11.43,7.648,5.347,2.838,10.251,6.674,98.0,477.0
2015-04-26,Shenzhen,China,114.1333,22.5333,[113.6333 22.0333 114.6333 23.0333],4.193,2.573,10.358,6.848,4.917,2.575,9.803,6.289,108.0,466.0
2015-04-27,Shenzhen,China,114.1333,22.5333,[113.6333 22.0333 114.6333 23.0333],4.007,2.347,10.19,6.466,4.651,2.34,9.432,5.971,126.0,464.0
2015-04-28,Shenzhen,China,114.1333,22.5333,[113.6333 22.0333 114.6333 23.0333],4.007,2.258,10.19,6.447,4.501,2.28,9.255,5.827,127.0,470.0
2015-04-29,Shenzhen,China,114.1333,22.5333,[113.6333 22.0333 114.6333 23.0333],4.007,2.258,10.19,6.447,3.964,2.185,8.23,5.561,127.0,444.0
2015-04-30,Shenzhen,China,114.1333,22.5333,[113.6333 22.0333 114.6333 23.0333],4.0,2.008,10.199,6.507,3.616,1.986,7.592,5.327,125.0,463.0
2015-05-01,Shenzhen,China,114.1333,22.5333,[113.6333 22.0333 114.6333 23.0333],4.0,2.005,10.199,6.482,3.466,1.955,7.55,5.25,126.0,493.0
2015-05-02,Shenzhen,China,114.1333,22.5333,[113.6333 22.0333 114.6333 23.0333],3.869,1.715,10.19,6.421,3.213,1.836,7.256,5.113,117.0,523.0
2015-05-03,Shenzhen,China,114.1333,22.5333,[113.6333 22.0333 114.6333 23.0333],3.83,1.709,9.173,6.188,3.197,1.838,6.961,5.028,101.0,503.0
2015-05-04,Shenzhen,China,114.1333,22.5333,[113.6333 22.0333 114.6333 23.0333],3.732,1.242,10.199,6.225,3.349,1.775,6.995,5.038,92.0,513.0
2015-05-05,Shenzhen,China,114.1333,22.5333,[113.6333 22.0333 114.6333 23.0333],3.695,1.203,6.08,5.045,3.39,1.813,5.555,4.556,84.0,514.0
2015-05-06,Shenzhen,China,114.1333,22.5333,[113.6333 22.0333 114.6333 23.0333],3.075,1.157,5.488,4.089,3.295,1.839,5.481,4.399,71.0,504.0
2015-05-07,Shenzhen,China,114.1333,22.5333,[113.6333 22.0333 114.6333 23.0333],2.5,1.002,4.597,2.878,3.016,1.666,4.743,3.48,75.0,523.0
2015-05-08,Shenzhen,China,114.1333,22.5333,[113.6333 22.0333 114.6333 23.0333],3.075,1.242,4.662,3.057,3.049,1.64,4.654,3.229,95.0,495.0
2015-05-09,Shenzhen,China,114.1333,22.5333,[113.6333 22.0333 114.6333 23.0333],3.117,1.49,4.875,3.209,2.987,1.757,4.542,3.25,92.0,516.0
2015-05-10,Shenzhen,China,114.1333,22.5333,[113.6333 22.0333 114.6333 23.0333],3.117,1.522,4.875,3.252,2.945,1.687,4.419,3.2,88.0,500.0
2015-05-11,Shenzhen,China,114.1333,22.5333,[113.6333 22.0333 114.6333 23.0333],3.368,1.908,5.079,3.431,3.001,1.776,4.519,3.231,75.0,521.0
2015-05-12,Shenzhen,China,114.1333,22.5333,[113.6333 22.0333 114.6333 23.0333],3.368,1.912,4.956,3.385,2.915,1.747,4.454,3.183,55.0,513.0
2015-05-13,Shenzhen,China,114.1333,22.5333,[113.6333 22.0333 114.6333 23.0333],3.368,2.02,4.956,3.403,2.917,1.824,4.515,3.246,54.0,513.0
2015-05-14,Shenzhen,China,114.1333,22.5333,[113.6333 22.0333 114.6333 23.0333],3.368,2.02,4.956,3.403,3.097,1.804,4.802,3.379,54.0,524.0
2015-05-15,Shenzhen,China,114.1333,22.5333,[113.6333 22.0333 114.6333 23.0333],3.368,2.02,4.956,3.403,3.085,1.832,4.83,3.427,54.0,500.0
2015-05-16,Shenzhen,China,114.1333,22.5333,[113.6333 22.0333 114.6333 23.0333],3.373,2.02,4.956,3.429,3.211,2.03,5.08,3.574,53.0,518.0
2015-05-17,Shenzhen,China,114.1333,22.5333,[113.6333 22.0333 114.6333 23.0333],3.373,2.02,4.956,3.456,3.239,1.999,5.08,3.603,51.0,496.0
2015-05-18,Shenzhen,China,114.1333,22.5333,[113.6333 22.0333 114.6333 23.0333],3.373,2.02,4.956,3.456,3.579,2.079,5.381,3.78,51.0,476.0
2015-05-19,Shenzhen,China,114.1333,22.5333,[113.6333 22.0333 114.6333 23.0333],3.373,2.058,4.956,3.493,3.584,2.099,5.307,3.795,49.0,456.0
2015-05-20,Shenzhen,China,114.1333,22.5333,[113.6333 22.0333 114.6333 23.0333],3.117,1.912,4.921,3.198,3.538,2.17,5.375,3.897,44.0,467.0
2015-05-21,Shenzhen,China,114.1333,22.5333,[113.6333 22.0333 114.6333 23.0333],3.263,1.95,4.921,3.338,3.724,2.257,5.411,3.971,58.0,465.0
2015-05-22,Shenzhen,China,114.1333,22.5333,[113.6333 22.0333 114.6333 23.0333],3.117,2.038,4.511,3.237,3.781,2.312,5.479,4.016,56.0,453.0
2015-05-23,Shenzhen,China,114.1333,22.5333,[113.6333 22.0333 114.6333 23.0333],3.059,1.776,4.942,3.324,3.987,2.349,5.641,4.137,51.0,471.0
2015-05-24,Shenzhen,China,114.1333,22.5333,[113.6333 22.0333 114.6333 23.0333],3.059,1.776,4.942,3.324,4.166,2.593,5.759,4.307,51.0,441.0
2015-05-25,Shenzhen,China,114.1333,22.5333,[113.6333 22.0333 114.6333 23.0333],3.059,1.776,4.942,3.324,4.162,2.318,5.761,4.252,51.0,462.0
2015-05-26,Shenzhen,China,114.1333,22.5333,[113.6333 22.0333 114.6333 23.0333],2.34,1.06,4.315,2.724,4.039,2.246,5.585,4.116,63.0,450.0
2015-05-27,Shenzhen,China,114.1333,22.5333,[113.6333 22.0333 114.6333 23.0333],2.387,1.174,4.857,3.071,4.137,2.266,5.964,4.279,98.0,470.0
2015-05-28,Shenzhen,China,114.1333,22.5333,[113.6333 22.0333 114.6333 23.0333],2.752,1.174,4.544,3.178,4.062,2.274,5.781,4.248,115.0,466.0
2015-05-29,Shenzhen,China,114.1333,22.5333,[113.6333 22.0333 114.6333 23.0333],2.682,1.174,4.544,3.153,3.944,2.204,5.432,4.099,118.0,467.0
2015-05-30,Shenzhen,China,114.1333,22.5333,[113.6333 22.0333 114.6333 23.0333],2.668,1.174,4.544,3.12,3.884,2.158,5.376,4.043,126.0,480.0
2015-05-31,Shenzhen,China,114.1333,22.5333,[113.6333 22.0333 114.6333 23.0333],2.763,1.174,4.469,3.04,3.799,1.868,5.277,3.85,144.0,457.0
2015-06-01,Shenzhen,China,114.1333,22.5333,[113.6333 22.0333 114.6333 23.0333],2.763,1.174,4.469,3.04,3.665,1.774,5.226,3.779,144.0,478.0
2015-06-02,Shenzhen,China,114.1333,22.5333,[113.6333 22.0333 114.6333 23.0333],2.821,1.174,4.469,3.005,3.365,1.59,4.952,3.517,157.0,506.0
2015-06-03,Shenzhen,China,114.1333,22.5333,[113.6333 22.0333 114.6333 23.0333],2.821,1.174,4.469,3.006,3.359,1.679,4.891,3.524,159.0,537.0
2015-06-04,Shenzhen,China,114.1333,22.5333,[113.6333 22.0333 114.6333 23.0333],2.821,1.174,4.094,2.997,3.409,1.7,4.806,3.571,162.0,517.0
2015-06-05,Shenzhen,China,114.1333,22.5333,[113.6333 22.0333 114.6333 23.0333],2.821,1.174,4.469,3.041,3.336,1.651,4.872,3.516,166.0,528.0
2015-06-06,Shenzhen,China,114.1333,22.5333,[113.6333 22.0333 114.6333 23.0333],2.821,1.174,4.49,3.103,3.149,1.508,4.726,3.414,166.0,530.0
2015-06-07,Shenzhen,China,114.1333,22.5333,[113.6333 22.0333 114.6333 23.0333],2.763,1.174,4.413,3.02,3.079,1.461,4.671,3.354,163.0,519.0
2015-06-08,Shenzhen,China,114.1333,22.5333,[113.6333 22.0333 114.6333 23.0333],2.74,1.181,4.469,3.087,3.16,1.5,4.735,3.421,180.0,538.0
2015-06-09,Shenzhen,China,114.1333,22.5333,[113.6333 22.0333 114.6333 23.0333],2.821,1.266,4.49,3.199,3.249,1.57,4.791,3.496,200.0,509.0
2015-06-10,Shenzhen,China,114.1333,22.5333,[113.6333 22.0333 114.6333 23.0333],3.135,1.587,4.658,3.42,3.461,1.841,4.827,3.651,187.0,527.0
2015-06-11,Shenzhen,China,114.1333,22.5333,[113.6333 22.0333 114.6333 23.0333],3.326,1.704,5.263,3.596,3.493,1.862,5.019,3.68,180.0,516.0
2015-06-12,Shenzhen,China,114.1333,22.5333,[113.6333 22.0333 114.6333 23.0333],3.326,1.711,5.359,3.764,3.515,1.877,5.13,3.77,199.0,534.0
2015-06-13,Shenzhen,China,114.1333,22.5333,[113.6333 22.0333 114.6333 23.0333],3.271,1.626,5.359,3.7,3.432,1.708,5.025,3.672,209.0,529.0
2015-06-14,Shenzhen,China,114.1333,22.5333,[113.6333 22.0333 114.6333 23.0333],3.218,1.626,5.359,3.662,3.702,1.711,5.235,3.782,219.0,528.0
2015-06-15,Shenzhen,China,114.1333,22.5333,[113.6333 22.0333 114.6333 23.0333],3.271,1.713,5.674,3.755,3.704,1.789,5.418,3.849,204.0,537.0
2015-06-16,Shenzhen,China,114.1333,22.5333,[113.6333 22.0333 114.6333 23.0333],3.271,1.713,5.674,3.755,3.756,1.741,5.283,3.819,204.0,512.0
2015-06-17,Shenzhen,China,114.1333,22.5333,[113.6333 22.0333 114.6333 23.0333],3.435,1.713,5.922,3.908,3.977,1.767,5.473,3.993,191.0,532.0